Location: Unspecified
(0.0000°N, 0.0000°E)
Time: 15:01:44
(UTC+02:00)

Iridium 75 - Visible Passes

Search period start: 22 May 2015 00:00
Search period end: 01 June 2015 00:00
Orbit: 776 x 779 km, 86.4° (Epoch: 21 May)

Date Brightness Start Highest point End Pass type
(mag) Time Alt. Az. Time Alt. Az. Time Alt. Az.
22 May 6.8 22:11:44 47° NNW 22:11:44 47° NNW 22:15:30 10° N visible
23 May 6.1 21:37:16 52° ENE 21:37:16 52° ENE 21:41:56 10° NNE visible
24 May 7.0 21:02:42 23° ESE 21:03:20 24° E 21:07:32 10° NE visible
24 May 8.3 22:43:05 18° WSW 22:43:57 19° W 22:47:25 10° NW visible
25 May 7.9 20:29:19 10° E 20:29:42 10° E 20:30:36 10° E visible
25 May 7.1 22:08:22 29° SW 22:10:24 41° W 22:15:16 10° NNW visible
26 May 5.9 21:33:30 22° S 21:36:56 87° E 21:42:08 10° N visible
27 May 6.5 20:58:39 10° SSE 21:03:27 38° E 21:08:16 10° NNE visible
27 May 8.9 22:42:24 10° WSW 22:44:07 11° W 22:45:22 10° WNW visible
28 May 7.4 20:26:37 10° SE 20:29:52 18° E 20:33:23 10° NE visible
28 May 8.0 22:06:11 10° SW 22:10:30 26° W 22:14:41 10° NW visible
29 May 6.6 21:31:52 10° SSW 21:36:59 57° W 21:42:05 10° NNW visible
30 May 6.0 20:58:22 10° S 21:03:31 63° E 21:08:40 10° N visible
31 May 6.9 20:25:38 10° SSE 20:30:00 28° E 20:34:28 10° NNE visible
31 May 8.7 22:07:23 10° SW 22:10:38 16° W 22:13:34 10° NW visible
